When you browse on this site, cookies collect data to enhance your experience and personalize the content and advertising you see.
Visit our Privacy Policy to learn more. By continuing to use the site, you agree to this use of cookies and data.
  • In Hungary
  • List of Countries
  • For 7 days
  • Water Temperature
  • Satellite Maps
  • Weather Map
  • News
  • Weather Widgets
  • user-avatar
    Login

    Hourly Weather Kiel

    Today, 21 April, Sunday

    Time Temperature Precipitation Wind Pressure Humidity
    00:00 +7°C° 0 mm 1 mps 770 mmHg 63%
    01:00 +7°C° 0 mm 1 mps 770 mmHg 64%
    02:00 +6°C° 0 mm 1 mps 770 mmHg 64%
    03:00 +6°C° 0 mm 1 mps 769 mmHg 65%
    04:00 +6°C° 0 mm 1 mps 769 mmHg 65%
    05:00 +7°C° 0 mm 1 mps 769 mmHg 65%
    06:00 +8°C° 0 mm 1 mps 769 mmHg 65%
    07:00 +9°C° 0 mm 1 mps 768 mmHg 65%
    08:00 +11°C° 0 mm 1 mps 768 mmHg 61%
    09:00 +13°C° 0 mm 1 mps 768 mmHg 57%
    10:00 +15°C° 0 mm 2 mps 768 mmHg 53%
    11:00 +16°C° 0 mm 2 mps 767 mmHg 52%
    12:00 +17°C° 0 mm 2 mps 767 mmHg 50%
    13:00 +18°C° 0 mm 2 mps 766 mmHg 49%
    14:00 +17°C° 0 mm 3 mps 766 mmHg 51%
    15:00 +17°C° 0 mm 3 mps 765 mmHg 54%
    16:00 +17°C° 0 mm 3 mps 765 mmHg 56%
    17:00 +14°C° 0 mm 3 mps 765 mmHg 61%
    18:00 +13°C° 0 mm 3 mps 764 mmHg 66%
    19:00 +11°C° 0 mm 3 mps 764 mmHg 71%
    20:00 +10°C° 0 mm 3 mps 764 mmHg 68%
    21:00 +9°C° 0 mm 3 mps 764 mmHg 66%
    22:00 +8°C° 0 mm 3 mps 764 mmHg 63%
    23:00 +8°C° 0 mm 3 mps 764 mmHg 67%

    Tomorrow, 22 April, Monday

    Time Temperature Precipitation Wind Pressure Humidity
    00:00 +8°C° 0 mm 3 mps 764 mmHg 72%
    01:00 +8°C° 0 mm 3 mps 764 mmHg 76%
    02:00 +7°C° 0 mm 3 mps 763 mmHg 73%
    03:00 +7°C° 0 mm 3 mps 763 mmHg 70%
    04:00 +7°C° 0 mm 3 mps 763 mmHg 68%
    05:00 +7°C° 0 mm 4 mps 763 mmHg 66%
    06:00 +7°C° 0 mm 4 mps 763 mmHg 64%
    07:00 +8°C° 0 mm 4 mps 762 mmHg 62%
    08:00 +10°C° 0 mm 4 mps 762 mmHg 59%
    09:00 +12°C° 0 mm 5 mps 762 mmHg 56%
    10:00 +14°C° 0 mm 5 mps 762 mmHg 53%
    11:00 +14°C° 0 mm 5 mps 762 mmHg 53%
    12:00 +15°C° 0 mm 6 mps 762 mmHg 53%
    13:00 +16°C° 0 mm 6 mps 761 mmHg 53%
    14:00 +15°C° 0 mm 6 mps 761 mmHg 55%
    15:00 +15°C° 0 mm 7 mps 761 mmHg 57%
    16:00 +15°C° 0 mm 7 mps 760 mmHg 59%
    17:00 +14°C° 0 mm 7 mps 760 mmHg 63%
    18:00 +12°C° 0 mm 7 mps 760 mmHg 66%
    19:00 +11°C° 0 mm 7 mps 760 mmHg 70%
    20:00 +10°C° 0 mm 8 mps 760 mmHg 71%
    21:00 +10°C° 0 mm 8 mps 760 mmHg 72%
    22:00 +9°C° 0 mm 8 mps 760 mmHg 73%
    23:00 +9°C° 0 mm 7 mps 760 mmHg 74%

    Day after tomorrow, 23 April, Tuesday

    Time Temperature Precipitation Wind Pressure Humidity
    00:00 +9°C° 0 mm 7 mps 760 mmHg 75%
    01:00 +8°C° 0 mm 6 mps 759 mmHg 77%
    02:00 +8°C° 0 mm 6 mps 759 mmHg 80%
    03:00 +8°C° 0 mm 6 mps 759 mmHg 83%
    04:00 +8°C° 0 mm 7 mps 759 mmHg 86%
    05:00 +8°C° 0 mm 7 mps 758 mmHg 83%
    06:00 +7°C° 0 mm 8 mps 758 mmHg 80%
    07:00 +9°C° 0 mm 8 mps 758 mmHg 77%
    08:00 +8°C° 0 mm 9 mps 758 mmHg 73%
    09:00 +10°C° 0 mm 9 mps 757 mmHg 69%
    10:00 +11°C° 0 mm 10 mps 757 mmHg 64%
    11:00 +12°C° 0 mm 10 mps 757 mmHg 64%
    12:00 +12°C° 0 mm 10 mps 756 mmHg 63%
    13:00 +13°C° 0 mm 10 mps 756 mmHg 62%
    14:00 +13°C° 0 mm 10 mps 755 mmHg 62%
    15:00 +13°C° 0 mm 10 mps 755 mmHg 63%
    16:00 +14°C° 0 mm 10 mps 754 mmHg 63%
    17:00 +13°C° 0 mm 9 mps 754 mmHg 66%
    18:00 +12°C° 0 mm 9 mps 754 mmHg 69%
    19:00 +11°C° 0 mm 8 mps 753 mmHg 72%
    20:00 +11°C° 0 mm 8 mps 753 mmHg 74%
    21:00 +10°C° 0 mm 7 mps 753 mmHg 75%
    22:00 +10°C° 0 mm 7 mps 753 mmHg 77%
    23:00 +10°C° 0 mm 7 mps 752 mmHg 80%

    24 April, Wednesday

    Time Temperature Precipitation Wind Pressure Humidity
    00:00 +10°C° 0 mm 7 mps 752 mmHg 84%
    01:00 +10°C° 0 mm 7 mps 751 mmHg 88%
    02:00 +10°C° 0 mm 6 mps 751 mmHg 89%
    03:00 +10°C° 0 mm 6 mps 751 mmHg 90%
    04:00 +10°C° 0 mm 5 mps 750 mmHg 91%
    05:00 +10°C° 0 mm 5 mps 750 mmHg 90%
    06:00 +10°C° 0 mm 6 mps 750 mmHg 89%
    07:00 +10°C° 0 mm 6 mps 750 mmHg 88%
    08:00 +11°C° 0 mm 6 mps 750 mmHg 85%
    09:00 +13°C° 0 mm 5 mps 750 mmHg 83%
    10:00 +14°C° 0 mm 5 mps 750 mmHg 80%
    11:00 +15°C° 0 mm 5 mps 750 mmHg 76%
    12:00 +17°C° 0 mm 5 mps 750 mmHg 72%
    13:00 +20°C° 0 mm 5 mps 750 mmHg 68%
    14:00 +20°C° 0.5 mm 4 mps 750 mmHg 70%
    15:00 +20°C° 0.5 mm 4 mps 750 mmHg 72%
    16:00 +21°C° 0.5 mm 4 mps 750 mmHg 74%
    17:00 +19°C° 0.8 mm 4 mps 751 mmHg 79%
    18:00 +18°C° 0.8 mm 4 mps 751 mmHg 84%
    19:00 +15°C° 0.8 mm 4 mps 752 mmHg 90%
    20:00 +14°C° 0.1 mm 3 mps 753 mmHg 90%
    21:00 +12°C° 0.1 mm 3 mps 753 mmHg 90%
    22:00 +12°C° 0.1 mm 2 mps 754 mmHg 90%
    23:00 +12°C° 0 mm 2 mps 754 mmHg 89%

    25 April, Thursday

    Time Temperature Precipitation Wind Pressure Humidity
    00:00 +12°C° 0 mm 1 mps 754 mmHg 87%
    01:00 +11°C° 0 mm 1 mps 755 mmHg 85%
    02:00 +11°C° 1.2 mm 1 mps 755 mmHg 88%
    03:00 +11°C° 1.2 mm 1 mps 754 mmHg 90%
    04:00 +11°C° 1.2 mm 1 mps 754 mmHg 93%
    05:00 +12°C° 0.1 mm 1 mps 754 mmHg 92%
    06:00 +12°C° 0.1 mm 2 mps 755 mmHg 91%
    07:00 +13°C° 0.1 mm 2 mps 755 mmHg 91%
    08:00 +13°C° 0 mm 3 mps 755 mmHg 86%
    09:00 +16°C° 0 mm 3 mps 755 mmHg 82%
    10:00 +17°C° 0 mm 4 mps 755 mmHg 77%
    11:00 +19°C° 0 mm 4 mps 755 mmHg 68%
    12:00 +20°C° 0 mm 4 mps 755 mmHg 59%
    13:00 +21°C° 0 mm 5 mps 755 mmHg 50%
    14:00 +21°C° 0 mm 4 mps 754 mmHg 55%
    15:00 +21°C° 0 mm 4 mps 754 mmHg 59%
    16:00 +20°C° 0 mm 3 mps 754 mmHg 63%
    17:00 +19°C° 0.1 mm 3 mps 754 mmHg 66%
    18:00 +18°C° 0.1 mm 3 mps 754 mmHg 69%
    19:00 +17°C° 0.1 mm 3 mps 754 mmHg 71%
    20:00 +16°C° 0.7 mm 3 mps 754 mmHg 76%
    21:00 +14°C° 0.7 mm 3 mps 754 mmHg 81%
    22:00 +14°C° 0.7 mm 3 mps 754 mmHg 86%
    23:00 +13°C° 1.3 mm 4 mps 755 mmHg 89%

    26 April, Friday

    Time Temperature Precipitation Wind Pressure Humidity
    00:00 +12°C° 1.3 mm 4 mps 755 mmHg 92%
    01:00 +9°C° 1.3 mm 5 mps 755 mmHg 95%
    02:00 +9°C° 1.8 mm 5 mps 755 mmHg 95%
    03:00 +10°C° 1.8 mm 4 mps 755 mmHg 96%
    04:00 +9°C° 1.8 mm 3 mps 756 mmHg 96%
    05:00 +8°C° 0.1 mm 4 mps 756 mmHg 95%
    06:00 +10°C° 0.1 mm 4 mps 756 mmHg 94%
    07:00 +10°C° 0.1 mm 4 mps 756 mmHg 93%
    08:00 +11°C° 0 mm 4 mps 756 mmHg 87%
    09:00 +12°C° 0 mm 4 mps 757 mmHg 82%
    10:00 +13°C° 0 mm 5 mps 757 mmHg 76%
    11:00 +13°C° 0 mm 4 mps 757 mmHg 72%
    12:00 +14°C° 0 mm 4 mps 757 mmHg 69%
    13:00 +15°C° 0 mm 4 mps 758 mmHg 65%
    14:00 +14°C° 0.2 mm 4 mps 758 mmHg 66%
    15:00 +14°C° 0.2 mm 4 mps 758 mmHg 67%
    16:00 +14°C° 0.2 mm 3 mps 758 mmHg 69%
    17:00 +13°C° 0.3 mm 3 mps 758 mmHg 75%
    18:00 +13°C° 0.3 mm 2 mps 759 mmHg 81%
    19:00 +12°C° 0.3 mm 2 mps 759 mmHg 87%
    20:00 +10°C° 0.3 mm 2 mps 759 mmHg 88%
    21:00 +9°C° 0.3 mm 2 mps 760 mmHg 89%
    22:00 +9°C° 0.3 mm 2 mps 760 mmHg 90%
    23:00 +8°C° 0 mm 2 mps 761 mmHg 91%
    Show more